Flag for U.S.A. Weather past 2 weeks in Salem, Oregon, U.S.A.

Now
81 °F

Sunny.


Feels Like: 81 °F
Forecast: 54 / 82 °F
Wind: 5 mph from North

Location: McNary Field

Current Time: May 28, 2015 at 2:17:13 PM

Latest Report: May 28, 2015 at 1:56 PM


Visibility: 10 mi

Pressure: 29.99 "Hg

Humidity: 41%

Dew point: 55 °F

Location of SalemLocation

Historic Weather in Salem — Graph

°F

Salem temperature yesterday

Maximum temperature yesterday: 78 °F (at 3:56 PM)
Minimum temperature yesterday: 49 °F (at 5:56 AM)
Average temperature yesterday: 65 °F

Past Weeks' High & Low Weather Summary

 TemperatureHumidityPressure
High78 °F (May 27, 3:56 PM)93% (May 14, 3:56 AM)30.19 "Hg (May 14, 3:56 AM)
Low48 °F (May 26, 3:56 AM)39% (May 14, 3:56 PM)29.78 "Hg (May 14, 6:56 PM)
Average59 °F71%30.00 "Hg
* Reported May 13 12:03 PM — May 28 12:56 PM, Salem, Weather by CustomWeather, © 2015

Note: Actual official high and low records may vary slightly from our data, if they occured in-between our weather recording intervals... More about our weather records

Advertising

Salem weather history for previous 24 hours

 ConditionsComfort  
Time TempWeatherWind HumidityBarometerVisibility
12:56 PM
Thu, May 28
78 °FSunny.6 mph45%30.01 "Hg10 mi
11:56 AM75 °FSunny.7 mph50%30.03 "Hg10 mi
10:56 AM72 °FSunny.No wind53%30.04 "Hg10 mi
9:56 AM69 °FSunny.No wind59%30.05 "Hg10 mi
8:56 AM65 °FSunny.No wind66%30.07 "Hg10 mi
7:56 AM62 °FSunny.No wind73%30.06 "Hg10 mi
6:56 AM58 °FSunny.No wind81%30.05 "Hg10 mi
5:56 AM52 °FClear.No wind89%30.04 "Hg10 mi
4:56 AM53 °FClear.No wind86%30.02 "Hg10 mi
3:56 AM54 °FClear.No wind86%30.02 "Hg10 mi
2:56 AM55 °FClear.5 mph87%30.02 "Hg10 mi
1:56 AM56 °FClear.3 mph84%30.01 "Hg10 mi
12:56 AM57 °FClear.No wind81%30.02 "Hg10 mi
11:56 PM
Wed, May 27
63 °FClear.3 mph65%30.01 "Hg10 mi
10:56 PM65 °FPassing clouds.6 mph61%30.01 "Hg10 mi
9:56 PM67 °FPassing clouds.12 mph59%30.00 "Hg10 mi
8:56 PM68 °FSunny.6 mph57%29.98 "Hg10 mi
7:56 PM74 °FSunny.6 mph48%29.97 "Hg10 mi
6:56 PM77 °FSunny.9 mph45%29.96 "Hg10 mi
5:56 PM78 °FScattered clouds.6 mph45%29.96 "Hg10 mi
4:56 PM78 °FPassing clouds.10 mph43%29.98 "Hg10 mi
3:56 PM78 °FScattered clouds.9 mph42%29.99 "Hg10 mi
2:56 PM76 °FPartly sunny.5 mph43%30.00 "Hg10 mi
Weather by CustomWeather, © 2015

See weather overviewHow to use our weather pages